| time (UTC) | temp F | wind direction | speed knots | gust knots | rain 1hr in | rain 24hr in | rain mn in | humidity % | barometer mb |
| 20260509112852 | 34 | 206 | 0.9 | 0.9 | 0.00 | 0.00 | 0.00 | 90 | 1013.1 |
| 20260509112349 | 33 | 192 | 0.0 | 0.9 | 0.00 | 0.00 | 0.00 | 92 | 1013.1 |
| 20260509111846 | 32 | 186 | 0.0 | 0.0 | 0.00 | 0.00 | 0.00 | 94 | 1013.1 |
| 20260509111343 | 32 | 198 | 0.0 | 0.0 | 0.00 | 0.00 | 0.00 | 95 | 1013.3 |
| 20260509110841 | 32 | 180 | 0.0 | 0.0 | 0.00 | 0.00 | 0.00 | 96 | 1013.0 |
| 20260509110336 | 31 | 180 | 0.0 | 0.0 | 0.00 | 0.00 | 0.00 | 97 | 1013.1 |
| 20260509105835 | 30 | 180 | 0.0 | 0.0 | 0.00 | 0.00 | 0.00 | 97 | 1013.3 |
| 20260509105333 | 30 | 180 | 0.0 | 0.0 | 0.00 | 0.00 | 0.00 | 97 | 1013.2 |
| 20260509104829 | 30 | 180 | 0.0 | 0.0 | 0.00 | 0.00 | 0.00 | 97 | 1013.1 |
| 20260509104326 | 29 | 180 | 0.0 | 0.0 | 0.00 | 0.00 | 0.00 | 97 | 1013.3 |
| 20260509103824 | 29 | 180 | 0.0 | 0.0 | 0.00 | 0.00 | 0.00 | 97 | 1013.1 |
| 20260509103321 | 29 | 180 | 0.0 | 0.0 | 0.00 | 0.00 | 0.00 | 98 | 1013.3 |
| 20260509102820 | 28 | 180 | 0.0 | 0.0 | 0.00 | 0.00 | 0.00 | 98 | 1013.2 |
| 20260509102317 | 28 | 180 | 0.0 | 0.0 | 0.00 | 0.00 | 0.00 | 98 | 1013.3 |
| 20260509101812 | 28 | 180 | 0.0 | 0.0 | 0.00 | 0.00 | 0.00 | 98 | 1013.3 |
| 20260509101308 | 27 | 180 | 0.0 | 0.0 | 0.00 | 0.00 | 0.00 | 98 | 1013.3 |
| 20260509100807 | 27 | 180 | 0.0 | 0.0 | 0.00 | 0.00 | 0.00 | 98 | 1013.1 |
| 20260509100303 | 28 | 180 | 0.0 | 0.0 | 0.00 | 0.00 | 0.00 | 98 | 1013.1 |
| 20260509095800 | 28 | 179 | 0.0 | 0.0 | 0.00 | 0.00 | 0.00 | 98 | 1013.2 |
| 20260509095257 | 28 | 179 | 0.0 | 0.0 | 0.00 | 0.00 | 0.00 | 98 | 1013.1 |
| 20260509094754 | 27 | 179 | 0.0 | 0.0 | 0.00 | 0.00 | 0.00 | 98 | 1013.0 |
| 20260509094251 | 27 | 179 | 0.0 | 0.0 | 0.00 | 0.00 | 0.00 | 98 | 1012.9 |
| 20260509093749 | 27 | 179 | 0.0 | 0.0 | 0.00 | 0.00 | 0.00 | 97 | 1012.8 |
| 20260509093246 | 28 | 179 | 0.0 | 0.0 | 0.00 | 0.00 | 0.00 | 97 | 1012.8 |
| 20260509092744 | 28 | 179 | 0.0 | 0.0 | 0.00 | 0.00 | 0.00 | 97 | 1012.9 |
| 20260509092242 | 28 | 179 | 0.0 | 0.0 | 0.00 | 0.00 | 0.00 | 97 | 1012.8 |
| 20260509091739 | 28 | 179 | 0.0 | 0.0 | 0.00 | 0.00 | 0.00 | 97 | 1012.7 |
| 20260509091235 | 28 | 179 | 0.0 | 0.0 | 0.00 | 0.00 | 0.00 | 97 | 1012.5 |
| 20260509090733 | 28 | 179 | 0.0 | 0.0 | 0.00 | 0.00 | 0.00 | 97 | 1012.6 |
| 20260509090231 | 28 | 179 | 0.0 | 0.0 | 0.00 | 0.00 | 0.00 | 97 | 1012.4 |
| 20260509085728 | 27 | 179 | 0.0 | 0.0 | 0.00 | 0.00 | 0.00 | 97 | 1012.5 |
| 20260509085225 | 27 | 179 | 0.0 | 0.0 | 0.00 | 0.00 | 0.00 | 97 | 1012.8 |
| 20260509084721 | 27 | 179 | 0.0 | 0.0 | 0.00 | 0.00 | 0.00 | 97 | 1012.5 |
| 20260509084218 | 27 | 179 | 0.0 | 0.0 | 0.00 | 0.00 | 0.00 | 97 | 1012.5 |
| 20260509083716 | 27 | 179 | 0.0 | 0.0 | 0.00 | 0.00 | 0.00 | 97 | 1012.6 |
| 20260509083212 | 27 | 179 | 0.0 | 0.0 | 0.00 | 0.00 | 0.00 | 97 | 1012.8 |
| 20260509082709 | 27 | 179 | 0.0 | 0.0 | 0.00 | 0.00 | 0.00 | 97 | 1012.7 |
| 20260509082206 | 27 | 179 | 0.0 | 0.0 | 0.00 | 0.00 | 0.00 | 97 | 1012.7 |
| 20260509081703 | 27 | 179 | 0.0 | 0.0 | 0.00 | 0.00 | 0.00 | 97 | 1012.6 |
| 20260509081200 | 27 | 179 | 0.0 | 0.0 | 0.00 | 0.00 | 0.00 | 96 | 1012.6 |
| 20260509080658 | 27 | 179 | 0.0 | 0.0 | 0.00 | 0.00 | 0.00 | 96 | 1012.5 |
| 20260509080156 | 27 | 179 | 0.0 | 0.0 | 0.00 | 0.00 | 0.00 | 96 | 1012.5 |
| 20260509075654 | 27 | 179 | 0.0 | 0.0 | 0.00 | 0.00 | 0.00 | 96 | 1012.7 |
| 20260509075151 | 28 | 179 | 0.0 | 0.0 | 0.00 | 0.00 | 0.00 | 96 | 1012.5 |
| 20260509074648 | 28 | 179 | 0.0 | 0.0 | 0.00 | 0.00 | 0.00 | 96 | 1012.6 |
| 20260509074144 | 28 | 179 | 0.0 | 0.0 | 0.00 | 0.00 | 0.00 | 96 | 1012.5 |
| 20260509073641 | 27 | 179 | 0.0 | 0.0 | 0.00 | 0.00 | 0.00 | 96 | 1012.8 |
| 20260509073137 | 27 | 179 | 0.0 | 0.0 | 0.00 | 0.00 | 0.00 | 96 | 1012.6 |
| 20260509072635 | 28 | 179 | 0.0 | 0.0 | 0.00 | 0.00 | 0.00 | 96 | 1012.7 |
| 20260509072131 | 28 | 179 | 0.0 | 0.0 | 0.00 | 0.00 | 0.00 | 96 | 1012.6 |
| 20260509071628 | 28 | 179 | 0.0 | 0.0 | 0.00 | 0.00 | 0.00 | 95 | 1012.6 |
| 20260509071125 | 28 | 179 | 0.0 | 0.0 | 0.00 | 0.00 | 0.00 | 95 | 1012.8 |
| 20260509070622 | 28 | 179 | 0.0 | 0.0 | 0.00 | 0.00 | 0.00 | 95 | 1012.6 |
| 20260509070119 | 28 | 179 | 0.0 | 0.0 | 0.00 | 0.00 | 0.00 | 95 | 1012.6 |
| 20260509065614 | 28 | 179 | 0.0 | 0.0 | 0.00 | 0.00 | 0.00 | 95 | 1012.8 |
| 20260509065110 | 28 | 179 | 0.0 | 0.0 | 0.00 | 0.00 | 0.00 | 95 | 1012.8 |
| 20260509064608 | 28 | 179 | 0.0 | 0.0 | 0.00 | 0.00 | 0.00 | 95 | 1012.7 |
| 20260509064106 | 28 | 179 | 0.0 | 0.0 | 0.00 | 0.00 | 0.00 | 95 | 1012.6 |
| 20260509063602 | 28 | 179 | 0.0 | 0.0 | 0.00 | 0.00 | 0.00 | 94 | 1012.7 |
| 20260509063059 | 28 | 179 | 0.0 | 0.0 | 0.00 | 0.00 | 0.00 | 94 | 1012.7 |
| 20260509062556 | 29 | 179 | 0.0 | 0.0 | 0.00 | 0.00 | 0.00 | 94 | 1012.6 |
| 20260509062053 | 29 | 179 | 0.0 | 0.0 | 0.00 | 0.00 | 0.00 | 94 | 1012.8 |
| 20260509061550 | 29 | 179 | 0.0 | 0.0 | 0.00 | 0.00 | 0.00 | 94 | 1012.8 |
| 20260509061047 | 29 | 179 | 0.0 | 0.0 | 0.00 | 0.00 | 0.00 | 93 | 1012.9 |
| 20260509060545 | 29 | 179 | 0.0 | 0.0 | 0.00 | 0.00 | 0.00 | 93 | 1012.8 |
| 20260509060040 | 29 | 179 | 0.0 | 0.0 | 0.00 | 0.00 | 0.00 | 93 | 1012.6 |
| 20260509055536 | 29 | 179 | 0.0 | 0.0 | 0.00 | 0.00 | 0.00 | 93 | 1012.9 |
| 20260509055032 | 29 | 179 | 0.0 | 0.0 | 0.00 | 0.00 | 0.00 | 92 | 1012.9 |
| 20260509054529 | 29 | 179 | 0.0 | 0.0 | 0.00 | 0.00 | 0.00 | 92 | 1012.9 |
| 20260509054027 | 30 | 179 | 0.0 | 0.0 | 0.00 | 0.00 | 0.00 | 92 | 1012.7 |
| 20260509053526 | 30 | 179 | 0.0 | 0.0 | 0.00 | 0.00 | 0.00 | 92 | 1012.8 |
| 20260509053022 | 30 | 179 | 0.0 | 0.0 | 0.00 | 0.00 | 0.00 | 92 | 1012.5 |
| 20260509052520 | 30 | 179 | 0.0 | 0.0 | 0.00 | 0.00 | 0.00 | 91 | 1012.6 |
| 20260509052018 | 31 | 179 | 0.0 | 0.0 | 0.00 | 0.00 | 0.00 | 91 | 1012.6 |
| 20260509051515 | 31 | 179 | 0.0 | 0.0 | 0.00 | 0.00 | 0.00 | 91 | 1012.3 |
| 20260509051012 | 31 | 179 | 0.0 | 0.0 | 0.00 | 0.00 | 0.00 | 91 | 1012.5 |
| 20260509050509 | 31 | 179 | 0.0 | 0.0 | 0.00 | 0.00 | 0.00 | 92 | 1012.3 |
| 20260509050005 | 31 | 179 | 0.0 | 0.0 | 0.00 | 0.00 | 0.00 | 91 | 1012.4 |
| 20260509045503 | 31 | 179 | 0.0 | 0.0 | 0.00 | 0.00 | 0.00 | 91 | 1012.1 |
| 20260509045000 | 31 | 179 | 0.0 | 0.0 | 0.00 | 0.00 | 0.00 | 91 | 1012.4 |
| 20260509044457 | 32 | 179 | 0.0 | 0.0 | 0.00 | 0.00 | 0.00 | 91 | 1012.4 |
| 20260509043954 | 32 | 179 | 0.0 | 0.0 | 0.00 | 0.00 | 0.00 | 90 | 1012.5 |
| 20260509043450 | 32 | 179 | 0.0 | 0.0 | 0.00 | 0.00 | 0.00 | 89 | 1012.4 |
| 20260509042945 | 32 | 179 | 0.0 | 0.0 | 0.00 | 0.00 | 0.00 | 88 | 1012.3 |
| 20260509042443 | 32 | 179 | 0.0 | 0.0 | 0.00 | 0.00 | 0.00 | 88 | 1012.3 |
| 20260509041939 | 32 | 179 | 0.0 | 0.0 | 0.00 | 0.00 | 0.00 | 87 | 1012.4 |
| 20260509041436 | 33 | 179 | 0.0 | 0.0 | 0.00 | 0.00 | 0.00 | 87 | 1012.1 |
| 20260509040934 | 33 | 179 | 0.0 | 0.0 | 0.00 | 0.00 | 0.00 | 87 | 1012.4 |
| 20260509040432 | 33 | 179 | 0.0 | 0.9 | 0.00 | 0.00 | 0.00 | 86 | 1012.0 |
| 20260509035928 | 34 | 179 | 0.0 | 0.0 | 0.00 | 0.00 | 0.00 | 86 | 1012.1 |
| 20260509035425 | 34 | 177 | 0.0 | 0.0 | 0.00 | 0.00 | 0.00 | 87 | 1012.4 |
| 20260509034921 | 33 | 176 | 0.0 | 0.0 | 0.00 | 0.00 | 0.00 | 87 | 1012.3 |
| 20260509034420 | 34 | 176 | 0.0 | 0.0 | 0.00 | 0.00 | 0.00 | 87 | 1012.1 |
| 20260509033916 | 34 | 176 | 0.0 | 0.0 | 0.00 | 0.00 | 0.00 | 87 | 1012.1 |
| 20260509033413 | 34 | 176 | 0.0 | 0.0 | 0.00 | 0.00 | 0.00 | 87 | 1012.1 |
| 20260509032910 | 34 | 177 | 0.0 | 0.0 | 0.00 | 0.00 | 0.00 | 86 | 1012.3 |
| 20260509032407 | 35 | 177 | 0.0 | 0.0 | 0.00 | 0.00 | 0.00 | 86 | 1012.0 |
| 20260509031905 | 35 | 177 | 0.0 | 0.0 | 0.00 | 0.00 | 0.00 | 85 | 1011.9 |
| 20260509031402 | 35 | 176 | 0.0 | 0.0 | 0.00 | 0.00 | 0.00 | 85 | 1011.9 |
| 20260509030900 | 35 | 176 | 0.0 | 0.0 | 0.00 | 0.00 | 0.00 | 85 | 1011.9 |
| 20260509030358 | 35 | 176 | 0.0 | 0.0 | 0.00 | 0.00 | 0.00 | 85 | 1011.9 |
| 20260509025854 | 36 | 176 | 0.0 | 0.0 | 0.00 | 0.00 | 0.00 | 84 | 1011.8 |
| 20260509025349 | 36 | 176 | 0.0 | 0.0 | 0.00 | 0.00 | 0.00 | 84 | 1011.9 |
| 20260509024845 | 36 | 176 | 0.0 | 0.0 | 0.00 | 0.00 | 0.00 | 84 | 1011.7 |
| 20260509024341 | 36 | 176 | 0.0 | 0.0 | 0.00 | 0.00 | 0.00 | 83 | 1011.7 |
| 20260509023839 | 36 | 176 | 0.0 | 0.0 | 0.00 | 0.00 | 0.00 | 83 | 1011.5 |
| 20260509023336 | 36 | 176 | 0.0 | 0.0 | 0.00 | 0.00 | 0.00 | 83 | 1011.6 |
| 20260509022832 | 37 | 176 | 0.0 | 0.0 | 0.00 | 0.00 | 0.00 | 83 | 1011.5 |
| 20260509022330 | 37 | 176 | 0.0 | 0.0 | 0.00 | 0.00 | 0.00 | 82 | 1011.5 |
| 20260509021827 | 37 | 176 | 0.0 | 0.0 | 0.00 | 0.00 | 0.00 | 82 | 1011.5 |
| 20260509021324 | 37 | 176 | 0.0 | 0.0 | 0.00 | 0.00 | 0.00 | 83 | 1011.6 |
| 20260509020821 | 37 | 176 | 0.0 | 0.0 | 0.00 | 0.00 | 0.00 | 81 | 1011.5 |
| 20260509020319 | 37 | 176 | 0.0 | 0.0 | 0.00 | 0.00 | 0.00 | 79 | 1011.4 |
| 20260509015817 | 38 | 176 | 0.0 | 0.0 | 0.00 | 0.00 | 0.00 | 78 | 1011.4 |
| 20260509015315 | 38 | 176 | 0.0 | 0.0 | 0.00 | 0.00 | 0.00 | 77 | 1011.4 |
| 20260509014811 | 39 | 176 | 0.0 | 0.0 | 0.00 | 0.00 | 0.00 | 77 | 1011.2 |
| 20260509014308 | 39 | 176 | 0.0 | 0.0 | 0.00 | 0.00 | 0.00 | 77 | 1011.3 |
| 20260509013804 | 40 | 176 | 0.0 | 0.0 | 0.00 | 0.00 | 0.00 | 77 | 1011.1 |
| 20260509013300 | 40 | 176 | 0.0 | 0.9 | 0.00 | 0.00 | 0.00 | 76 | 1011.0 |
| 20260509012757 | 40 | 176 | 0.0 | 0.0 | 0.00 | 0.00 | 0.00 | 74 | 1011.0 |
| 20260509012254 | 40 | 176 | 0.0 | 0.0 | 0.00 | 0.00 | 0.00 | 71 | 1010.9 |
| 20260509011751 | 41 | 176 | 0.0 | 0.0 | 0.00 | 0.00 | 0.00 | 71 | 1010.5 |
| 20260509011248 | 41 | 176 | 0.0 | 0.0 | 0.00 | 0.00 | 0.00 | 71 | 1010.8 |
| 20260509010746 | 41 | 176 | 0.0 | 0.0 | 0.00 | 0.00 | 0.00 | 70 | 1010.7 |
| 20260509010243 | 42 | 175 | 0.0 | 0.0 | 0.00 | 0.00 | 0.00 | 71 | 1010.7 |
| 20260509005740 | 42 | 175 | 0.0 | 0.0 | 0.00 | 0.00 | 0.00 | 68 | 1010.5 |
| 20260509005237 | 42 | 175 | 0.0 | 0.0 | 0.00 | 0.00 | 0.00 | 67 | 1010.4 |
| 20260509004731 | 42 | 175 | 0.0 | 0.0 | 0.00 | 0.00 | 0.00 | 66 | 1010.3 |
| 20260509004229 | 43 | 175 | 0.0 | 0.0 | 0.00 | 0.00 | 0.00 | 67 | 1010.2 |
| 20260509003727 | 43 | 175 | 0.0 | 0.0 | 0.00 | 0.00 | 0.00 | 64 | 1010.1 |
| 20260509003225 | 43 | 175 | 0.0 | 0.0 | 0.00 | 0.00 | 0.00 | 63 | 1010.2 |
| 20260509002722 | 44 | 175 | 0.0 | 0.0 | 0.00 | 0.00 | 0.00 | 64 | 1010.2 |
| 20260509002219 | 44 | 175 | 0.0 | 0.0 | 0.00 | 0.00 | 0.00 | 64 | 1009.9 |
| 20260509001717 | 44 | 175 | 0.0 | 0.0 | 0.00 | 0.00 | 0.00 | 62 | 1010.0 |
| 20260509001212 | 45 | 175 | 0.0 | 0.0 | 0.00 | 0.00 | 0.00 | 60 | 1009.8 |
| 20260509000711 | 45 | 175 | 0.0 | 0.0 | 0.00 | 0.00 | 0.00 | 58 | 1009.8 |
| 20260509000207 | 46 | 175 | 0.0 | 0.0 | 0.00 | 0.00 | 0.00 | 57 | 1009.9 |
| 20260508235704 | 47 | 175 | 0.0 | 0.0 | 0.00 | 0.00 | 0.00 | 58 | 1009.7 |
| 20260508235201 | 47 | 175 | 0.0 | 0.0 | 0.00 | 0.00 | 0.00 | 55 | 1009.7 |
| 20260508234659 | 48 | 175 | 0.0 | 0.0 | 0.00 | 0.00 | 0.00 | 53 | 1009.5 |
| 20260508234155 | 48 | 175 | 0.0 | 0.0 | 0.00 | 0.00 | 0.00 | 54 | 1009.4 |
| 20260508233654 | 49 | 176 | 0.0 | 0.0 | 0.00 | 0.00 | 0.00 | 53 | 1009.5 |
| 20260508233151 | 49 | 176 | 0.0 | 0.0 | 0.00 | 0.00 | 0.00 | 49 | 1009.5 |
| 20260508232649 | 49 | 176 | 0.0 | 0.0 | 0.00 | 0.00 | 0.00 | 51 | 1009.5 |
| 20260508232145 | 50 | 176 | 0.0 | 0.0 | 0.00 | 0.00 | 0.00 | 49 | 1009.5 |
| 20260508231643 | 50 | 176 | 0.0 | 0.0 | 0.00 | 0.00 | 0.00 | 44 | 1009.5 |
| 20260508231139 | 50 | 176 | 0.0 | 0.0 | 0.00 | 0.00 | 0.00 | 47 | 1009.4 |
| 20260508230636 | 50 | 176 | 0.0 | 0.0 | 0.00 | 0.00 | 0.00 | 41 | 1009.2 |
| 20260508230133 | 50 | 187 | 0.0 | 0.0 | 0.00 | 0.00 | 0.00 | 45 | 1009.4 |
| 20260508225631 | 50 | 185 | 0.0 | 0.0 | 0.00 | 0.00 | 0.00 | 41 | 1009.4 |
| 20260508225127 | 50 | 180 | 0.0 | 0.0 | 0.00 | 0.00 | 0.00 | 45 | 1009.2 |
| 20260508224625 | 50 | 180 | 0.0 | 0.0 | 0.00 | 0.00 | 0.00 | 45 | 1009.4 |
| 20260508224122 | 51 | 177 | 0.0 | 0.0 | 0.00 | 0.00 | 0.00 | 43 | 1009.5 |
| 20260508223620 | 51 | 176 | 0.0 | 0.0 | 0.00 | 0.00 | 0.00 | 44 | 1009.4 |
| 20260508223116 | 51 | 176 | 0.0 | 0.0 | 0.00 | 0.00 | 0.00 | 42 | 1009.5 |
| 20260508222614 | 51 | 192 | 0.0 | 0.9 | 0.00 | 0.00 | 0.00 | 40 | 1009.5 |
| 20260508222111 | 51 | 177 | 0.0 | 0.0 | 0.00 | 0.00 | 0.00 | 42 | 1009.5 |
| 20260508221607 | 51 | 173 | 0.0 | 0.0 | 0.00 | 0.00 | 0.00 | 40 | 1009.5 |
| 20260508221103 | 51 | 180 | 0.0 | 0.0 | 0.00 | 0.00 | 0.00 | 40 | 1009.3 |
| 20260508220600 | 51 | 349 | 2.6 | 2.6 | 0.00 | 0.00 | 0.00 | 39 | 1009.2 |
| 20260508220056 | 51 | 189 | 0.9 | 0.9 | 0.00 | 0.00 | 0.00 | 40 | 1009.2 |
| 20260508215553 | 51 | 11 | 2.6 | 4.3 | 0.00 | 0.00 | 0.00 | 41 | 1009.0 |
| 20260508215050 | 51 | 234 | 0.9 | 0.9 | 0.00 | 0.00 | 0.00 | 39 | 1009.1 |
| 20260508214547 | 51 | 181 | 0.0 | 0.9 | 0.00 | 0.00 | 0.00 | 41 | 1009.1 |
| 20260508214043 | 51 | 278 | 1.7 | 1.7 | 0.00 | 0.00 | 0.00 | 40 | 1009.2 |
| 20260508213541 | 51 | 114 | 0.9 | 1.7 | 0.00 | 0.00 | 0.00 | 41 | 1009.1 |
| 20260508213036 | 52 | 22 | 2.6 | 4.3 | 0.00 | 0.00 | 0.00 | 40 | 1009.0 |
| 20260508212533 | 51 | 153 | 0.0 | 0.9 | 0.00 | 0.00 | 0.00 | 43 | 1009.1 |
| 20260508212029 | 51 | 163 | 0.9 | 1.7 | 0.00 | 0.00 | 0.00 | 41 | 1009.0 |
| 20260508211525 | 51 | 173 | 0.0 | 0.9 | 0.00 | 0.00 | 0.00 | 40 | 1009.0 |
| 20260508211022 | 52 | 160 | 2.6 | 5.2 | 0.00 | 0.00 | 0.00 | 39 | 1009.0 |
| 20260508210518 | 52 | 220 | 0.9 | 0.9 | 0.00 | 0.00 | 0.00 | 39 | 1008.7 |
| 20260508210016 | 53 | 1 | 4.3 | 5.2 | 0.00 | 0.00 | 0.00 | 39 | 1008.9 |
| 20260508205513 | 52 | 180 | 1.7 | 1.7 | 0.00 | 0.00 | 0.00 | 43 | 1009.0 |
| 20260508205009 | 52 | 187 | 0.9 | 0.9 | 0.00 | 0.00 | 0.00 | 42 | 1008.9 |
| 20260508204507 | 52 | 181 | 0.0 | 0.0 | 0.00 | 0.00 | 0.00 | 41 | 1008.9 |
| 20260508204002 | 52 | 20 | 3.5 | 4.3 | 0.00 | 0.00 | 0.00 | 41 | 1008.9 |
| 20260508203458 | 51 | 175 | 0.9 | 0.9 | 0.00 | 0.00 | 0.00 | 41 | 1009.0 |
| 20260508202953 | 52 | 180 | 0.9 | 0.9 | 0.00 | 0.00 | 0.00 | 40 | 1008.7 |
| 20260508202451 | 52 | 178 | 0.0 | 0.0 | 0.00 | 0.00 | 0.00 | 42 | 1008.8 |
| 20260508201948 | 52 | 174 | 0.9 | 0.9 | 0.00 | 0.00 | 0.00 | 43 | 1009.0 |
| 20260508201444 | 51 | 189 | 0.0 | 0.0 | 0.00 | 0.00 | 0.00 | 43 | 1008.5 |
| 20260508200941 | 52 | 183 | 0.9 | 0.9 | 0.00 | 0.00 | 0.00 | 42 | 1008.9 |
| 20260508200438 | 52 | 182 | 1.7 | 1.7 | 0.00 | 0.00 | 0.00 | 43 | 1008.8 |
| 20260508195933 | 51 | 176 | 0.0 | 0.0 | 0.00 | 0.00 | 0.00 | 44 | 1008.8 |
| 20260508195431 | 51 | 177 | 0.9 | 0.9 | 0.00 | 0.00 | 0.00 | 42 | 1008.9 |
| 20260508194926 | 51 | 159 | 0.0 | 0.9 | 0.00 | 0.00 | 0.00 | 44 | 1008.7 |
| 20260508194424 | 51 | 208 | 0.9 | 1.7 | 0.00 | 0.00 | 0.00 | 41 | 1008.8 |
| 20260508193920 | 52 | 156 | 0.9 | 0.9 | 0.00 | 0.00 | 0.00 | 41 | 1008.7 |
| 20260508193418 | 52 | 166 | 0.9 | 1.7 | 0.00 | 0.00 | 0.00 | 41 | 1008.6 |
| 20260508192914 | 51 | 131 | 0.9 | 0.9 | 0.00 | 0.00 | 0.00 | 45 | 1008.8 |
| 20260508192411 | 52 | 159 | 0.9 | 0.9 | 0.00 | 0.00 | 0.00 | 42 | 1008.6 |
| 20260508191908 | 52 | 2 | 0.9 | 1.7 | 0.00 | 0.00 | 0.00 | 46 | 1008.9 |
| 20260508191406 | 53 | 176 | 1.7 | 1.7 | 0.00 | 0.00 | 0.00 | 41 | 1008.9 |
| 20260508190902 | 53 | 180 | 0.9 | 0.9 | 0.00 | 0.00 | 0.00 | 47 | 1008.9 |
| 20260508190359 | 51 | 177 | 0.9 | 0.9 | 0.00 | 0.00 | 0.00 | 48 | 1009.0 |
| 20260508185855 | 50 | 63 | 3.5 | 4.3 | 0.00 | 0.00 | 0.00 | 43 | 1008.8 |
| 20260508185353 | 50 | 172 | 2.6 | 2.6 | 0.00 | 0.00 | 0.00 | 43 | 1008.8 |
| 20260508184850 | 51 | 169 | 0.9 | 0.9 | 0.00 | 0.00 | 0.00 | 45 | 1008.9 |
| 20260508184347 | 51 | 335 | 1.7 | 2.6 | 0.00 | 0.00 | 0.00 | 42 | 1009.2 |
| 20260508183844 | 51 | 170 | 2.6 | 2.6 | 0.00 | 0.00 | 0.00 | 43 | 1009.0 |
| 20260508183340 | 51 | 178 | 1.7 | 1.7 | 0.00 | 0.00 | 0.00 | 42 | 1008.9 |
| 20260508182836 | 51 | 192 | 0.0 | 0.9 | 0.00 | 0.00 | 0.00 | 42 | 1009.2 |
| 20260508182333 | 52 | 176 | 1.7 | 1.7 | 0.00 | 0.00 | 0.00 | 41 | 1009.1 |
| 20260508181829 | 52 | 166 | 2.6 | 4.3 | 0.00 | 0.00 | 0.00 | 42 | 1009.0 |
| 20260508181326 | 51 | 166 | 0.9 | 1.7 | 0.00 | 0.00 | 0.00 | 44 | 1009.1 |
| 20260508180823 | 50 | 176 | 0.0 | 0.9 | 0.00 | 0.00 | 0.00 | 44 | 1009.2 |
| 20260508180320 | 51 | 293 | 1.7 | 1.7 | 0.00 | 0.00 | 0.00 | 42 | 1009.3 |
| 20260508175816 | 50 | 121 | 0.9 | 0.9 | 0.00 | 0.00 | 0.00 | 43 | 1009.4 |
| 20260508175312 | 50 | 14 | 2.6 | 2.6 | 0.00 | 0.00 | 0.00 | 46 | 1009.1 |
| 20260508174811 | 50 | 242 | 1.7 | 1.7 | 0.00 | 0.00 | 0.00 | 44 | 1009.3 |
| 20260508174308 | 50 | 169 | 0.0 | 0.9 | 0.00 | 0.00 | 0.00 | 44 | 1009.3 |
| 20260508173804 | 50 | 177 | 0.0 | 0.0 | 0.00 | 0.00 | 0.00 | 47 | 1009.1 |
| 20260508173301 | 49 | 177 | 0.0 | 0.9 | 0.00 | 0.00 | 0.00 | 44 | 1009.2 |
| 20260508172757 | 49 | 184 | 1.7 | 1.7 | 0.00 | 0.00 | 0.00 | 45 | 1009.0 |
| 20260508172254 | 49 | 175 | 0.0 | 0.0 | 0.00 | 0.00 | 0.00 | 46 | 1009.2 |
| 20260508171750 | 49 | 159 | 0.9 | 1.7 | 0.00 | 0.00 | 0.00 | 45 | 1009.1 |
| 20260508171246 | 49 | 169 | 1.7 | 1.7 | 0.00 | 0.00 | 0.00 | 44 | 1009.3 |
| 20260508170743 | 50 | 182 | 0.0 | 0.0 | 0.00 | 0.00 | 0.00 | 45 | 1009.2 |
| 20260508170242 | 50 | 1 | 2.6 | 4.3 | 0.00 | 0.00 | 0.00 | 45 | 1009.2 |
| 20260508165738 | 49 | 173 | 0.0 | 0.0 | 0.00 | 0.00 | 0.00 | 45 | 1009.2 |
| 20260508165235 | 49 | 331 | 1.7 | 1.7 | 0.00 | 0.00 | 0.00 | 45 | 1009.2 |
| 20260508164731 | 49 | 178 | 0.0 | 0.0 | 0.00 | 0.00 | 0.00 | 44 | 1009.2 |
| 20260508164228 | 48 | 190 | 0.9 | 0.9 | 0.00 | 0.00 | 0.00 | 45 | 1009.1 |
| 20260508163726 | 48 | 177 | 0.0 | 0.0 | 0.00 | 0.00 | 0.00 | 46 | 1009.3 |
| 20260508163224 | 48 | 171 | 1.7 | 2.6 | 0.00 | 0.00 | 0.00 | 46 | 1009.5 |
| 20260508162719 | 48 | 193 | 0.0 | 0.0 | 0.00 | 0.00 | 0.00 | 45 | 1009.3 |
| 20260508162216 | 48 | 180 | 2.6 | 2.6 | 0.00 | 0.00 | 0.00 | 46 | 1009.5 |
| 20260508161714 | 49 | 165 | 1.7 | 2.6 | 0.00 | 0.00 | 0.00 | 45 | 1009.3 |
| 20260508161211 | 49 | 180 | 0.0 | 0.0 | 0.00 | 0.00 | 0.00 | 44 | 1009.3 |
| 20260508160709 | 49 | 171 | 1.7 | 1.7 | 0.00 | 0.00 | 0.00 | 45 | 1009.3 |
| 20260508160206 | 48 | 180 | 0.9 | 1.7 | 0.00 | 0.00 | 0.00 | 46 | 1009.3 |
| 20260508155703 | 49 | 176 | 0.0 | 0.9 | 0.00 | 0.00 | 0.00 | 45 | 1009.4 |
| 20260508155200 | 49 | 174 | 0.0 | 0.9 | 0.00 | 0.00 | 0.00 | 47 | 1009.4 |
| 20260508154657 | 50 | 172 | 0.9 | 0.9 | 0.00 | 0.00 | 0.00 | 47 | 1009.3 |
| 20260508154154 | 50 | 173 | 0.9 | 0.9 | 0.00 | 0.00 | 0.00 | 47 | 1009.3 |
| 20260508153650 | 48 | 3 | 2.6 | 2.6 | 0.00 | 0.00 | 0.00 | 50 | 1009.2 |
| 20260508153148 | 48 | 159 | 0.9 | 0.9 | 0.00 | 0.00 | 0.00 | 52 | 1009.3 |
| 20260508152644 | 49 | 356 | 4.3 | 5.2 | 0.00 | 0.00 | 0.00 | 48 | 1009.4 |
| 20260508152139 | 48 | 174 | 0.0 | 0.9 | 0.00 | 0.00 | 0.00 | 51 | 1009.4 |
| 20260508151636 | 49 | 167 | 0.0 | 0.9 | 0.00 | 0.00 | 0.00 | 52 | 1009.5 |
| 20260508151133 | 48 | 171 | 0.0 | 0.0 | 0.00 | 0.00 | 0.00 | 52 | 1009.6 |
| 20260508150630 | 48 | 184 | 0.0 | 0.0 | 0.00 | 0.00 | 0.00 | 53 | 1009.4 |
| 20260508150127 | 48 | 185 | 0.0 | 0.9 | 0.00 | 0.00 | 0.00 | 54 | 1009.6 |
| 20260508145623 | 48 | 154 | 0.9 | 0.9 | 0.00 | 0.00 | 0.00 | 51 | 1009.5 |
| 20260508145119 | 48 | 175 | 0.9 | 0.9 | 0.00 | 0.00 | 0.00 | 56 | 1009.4 |
| 20260508144617 | 47 | 178 | 1.7 | 4.3 | 0.00 | 0.00 | 0.00 | 56 | 1009.6 |
| 20260508144114 | 46 | 358 | 6.1 | 7.8 | 0.00 | 0.00 | 0.00 | 55 | 1009.3 |
| 20260508143612 | 47 | 145 | 0.0 | 0.9 | 0.00 | 0.00 | 0.00 | 56 | 1009.7 |
| 20260508143108 | 46 | 5 | 4.3 | 5.2 | 0.00 | 0.00 | 0.00 | 57 | 1009.6 |
| 20260508142605 | 46 | 353 | 4.3 | 5.2 | 0.00 | 0.00 | 0.00 | 58 | 1009.4 |
| 20260508142102 | 47 | 359 | 0.9 | 2.6 | 0.00 | 0.00 | 0.00 | 57 | 1009.4 |
| 20260508141558 | 46 | 2 | 4.3 | 6.1 | 0.00 | 0.00 | 0.00 | 57 | 1009.3 |
| 20260508141056 | 46 | 170 | 1.7 | 2.6 | 0.00 | 0.00 | 0.00 | 56 | 1009.6 |
| 20260508140553 | 46 | 171 | 0.9 | 0.9 | 0.00 | 0.00 | 0.00 | 58 | 1009.5 |
| 20260508140049 | 46 | 168 | 0.0 | 0.0 | 0.00 | 0.00 | 0.00 | 60 | 1009.5 |
| 20260508135545 | 46 | 183 | 0.9 | 0.9 | 0.00 | 0.00 | 0.00 | 57 | 1009.5 |
| 20260508135041 | 47 | 107 | 0.9 | 1.7 | 0.00 | 0.00 | 0.00 | 58 | 1009.4 |
| 20260508134538 | 47 | 164 | 0.9 | 1.7 | 0.00 | 0.00 | 0.00 | 57 | 1009.3 |
| 20260508134035 | 48 | 164 | 3.5 | 7.0 | 0.00 | 0.00 | 0.00 | 54 | 1009.3 |
| 20260508133532 | 46 | 180 | 0.0 | 0.0 | 0.00 | 0.00 | 0.00 | 56 | 1009.3 |
| 20260508133029 | 46 | 355 | 1.7 | 1.7 | 0.00 | 0.00 | 0.00 | 57 | 1009.4 |
| 20260508132527 | 46 | 348 | 1.7 | 4.3 | 0.00 | 0.00 | 0.00 | 57 | 1009.2 |
| 20260508132024 | 46 | 181 | 0.9 | 0.9 | 0.00 | 0.00 | 0.00 | 57 | 1009.2 |
| 20260508131519 | 47 | 78 | 1.7 | 2.6 | 0.00 | 0.00 | 0.00 | 56 | 1009.1 |
| 20260508131016 | 47 | 154 | 0.0 | 0.9 | 0.00 | 0.00 | 0.00 | 57 | 1009.0 |
| 20260508130513 | 47 | 180 | 0.9 | 1.7 | 0.00 | 0.00 | 0.00 | 55 | 1009.0 |
| 20260508130009 | 47 | 175 | 0.9 | 0.9 | 0.00 | 0.00 | 0.00 | 52 | 1009.0 |
| 20260508125505 | 47 | 193 | 1.7 | 1.7 | 0.00 | 0.00 | 0.00 | 55 | 1009.0 |
| 20260508125003 | 47 | 176 | 0.0 | 0.9 | 0.00 | 0.00 | 0.00 | 58 | 1009.0 |
| 20260508124501 | 47 | 167 | 0.9 | 0.9 | 0.00 | 0.00 | 0.00 | 54 | 1009.0 |
| 20260508123957 | 47 | 171 | 2.6 | 2.6 | 0.00 | 0.00 | 0.00 | 53 | 1008.9 |
| 20260508123456 | 49 | 162 | 0.9 | 0.9 | 0.00 | 0.00 | 0.00 | 55 | 1009.0 |
| 20260508122952 | 52 | 172 | 7.0 | 9.6 | 0.00 | 0.00 | 0.00 | 49 | 1008.8 |
| 20260508122449 | 50 | 175 | 0.0 | 0.0 | 0.00 | 0.00 | 0.00 | 56 | 1008.8 |
| 20260508121946 | 50 | 169 | 0.0 | 0.0 | 0.00 | 0.00 | 0.00 | 60 | 1008.8 |
| 20260508121444 | 49 | 163 | 0.0 | 0.9 | 0.00 | 0.00 | 0.00 | 63 | 1008.8 |
| 20260508120942 | 47 | 171 | 0.0 | 0.0 | 0.00 | 0.00 | 0.00 | 68 | 1008.7 |
| 20260508120439 | 46 | 175 | 0.9 | 1.7 | 0.00 | 0.00 | 0.00 | 69 | 1008.8 |
| 20260508115937 | 46 | 189 | 0.9 | 0.9 | 0.00 | 0.00 | 0.00 | 69 | 1008.9 |
| 20260508115435 | 45 | 173 | 0.0 | 0.0 | 0.00 | 0.00 | 0.00 | 72 | 1008.7 |
| 20260508114931 | 44 | 176 | 0.9 | 0.9 | 0.00 | 0.00 | 0.00 | 72 | 1008.8 |
| 20260508114428 | 43 | 170 | 0.0 | 0.9 | 0.00 | 0.00 | 0.00 | 73 | 1009.0 |
| 20260508113925 | 42 | 174 | 0.9 | 1.7 | 0.00 | 0.00 | 0.00 | 75 | 1008.7 |
| 20260508113423 | 39 | 172 | 0.0 | 0.0 | 0.00 | 0.00 | 0.00 | 81 | 1008.6 |